Regional Weather Roundup
Issued by NWS

Home | Current Version | Previous Version | Text Only | Print | Product List | Glossary On
Versions: 1 2 3 4 5 6 7 8 9 10 11 12 13 14 15 16 17 18 19 20 21 22 23 24 25 26 27 28 29 30 31 32 33 34 35 36 37 38 39 40 41 42 43 44 45 46 47 48 49 50
000
ASUS42 KFFC 280710
RWRGA
WEATHER ROUNDUP FOR GEORGIA
NATIONAL WEATHER SERVICE PEACHTREE CITY GA
300 AM EDT SUN MAY 28 2017

NOTE: "FAIR" INDICATES FEW OR NO CLOUDS BELOW 12,000 FEET WITH NO
SIGNIFICANT WEATHER AND/OR OBSTRUCTIONS TO VISIBILITY.

* = USE WITH CAUTION. THE STATIONS MARKED WITH AN ASTERISK MAY NOT
REPORT WEATHER SUCH AS PRECIPITATION, FOG, OR THUNDER AND ARE NOT
QUALITY CONTROLLED BY NWS.

THE REMARK "TC" DENOTES TEMPERATURE READING IN DEGREES CELSIUS.

GAZ001>058-280800-
NORTH GEORGIA

CITY           SKY/WX    TMP DP  RH WIND       PRES   REMARKS
ATLANTA        CLOUDY    71  62  73 CALM      29.96F
ATHENS         CLOUDY    69  66  90 CALM      29.95F
CHAMBLEE       MOCLDY    66  63  90 SE3       29.95F
PEACHTREE CITY CLOUDY    73  69  87 N8        29.97S
ROME           CLOUDY    65  65 100 CALM      29.93F
WEST ATLANTA   CLOUDY    68  63  84 S5        29.95F
GAINESVILLE    CLOUDY    64  63  96 S5        29.95F
CARTERSVILLE   CLOUDY    63  63 100 VRB3      29.96F


CITY           SKY/WX    TMP DP  RH WIND       PRES   REMARKS
DALTON*        LGT RAIN  63  63 100 CALM      29.94F
MARIETTA       CLOUDY    65  62  90 CALM      29.95F
CANTON*        CLOUDY    64  61  88 CALM      29.96F
$$

GAZ059>098-102>109-280800-
CENTRAL GEORGIA

CITY           SKY/WX    TMP DP  RH WIND       PRES   REMARKS
AUGUSTA-BUSH   CLOUDY    69  65  86 CALM      29.91F
AUGUSTA-DANIEL CLOUDY    78  64  61 NW6       29.93F
COLUMBUS       PTCLDY    73  69  87 CALM      29.95F
MACON          PTCLDY    69  66  90 CALM      29.94F
ROBINS AFB     PTCLDY    69  65  89 CALM      29.93F


CITY           SKY/WX    TMP DP  RH WIND       PRES   REMARKS
LAGRANGE*      PTCLDY    70  70 100 CALM      29.95F FOG
SYLVANIA*      CLOUDY    69  67  94 CALM      29.94S
MILLEDGEVILLE* PTCLDY    70  70 100 CALM      29.94S
$$

GAZ099>101-110>166-280800-
SOUTH GEORGIA

CITY           SKY/WX    TMP DP  RH WIND       PRES   REMARKS
SAVANNAH       MOCLDY    70  64  81 CALM      29.95S
VALDOSTA       CLOUDY    70  70 100 CALM      29.96F FOG
ALMA           CLOUDY    66  62  87 CALM      29.96S
ST SIMONS      CLOUDY    74  67  78 W7        29.95F
FT STEWART     MOCLDY    67  63  87 CALM      29.93S
ALBANY         PTCLDY    71  68  90 CALM      29.99R
HUNTER AFB     MOCLDY    69  69 100 CALM      29.92F
MOODY AFB      CLEAR     70  68  95 S3        29.95F
BRUNSWICK      CLOUDY    72  66  83 W7        29.96F


CITY           SKY/WX    TMP DP  RH WIND       PRES   REMARKS
BAINBRIDGE*    CLEAR     73  72  94 W3        29.96F
MOULTRIE*      CLEAR     72  70  94 CALM      29.97S
VIDALIA*       CLOUDY    70  64  83 SW3       29.96S
WAYCROSS*      CLOUDY    71  69  93 CALM      29.96S
DOUGLAS*       CLEAR     68  63  83 CALM      29.98S
$$



USA.gov is the U.S. government's official web portal to all federal, state and local government web resources and services.